AAL514 KSAT-KMIA

Flight info

Callsign AAL514
Flight time 2h 14m
Altitude 37000
Route SNIDR2 MOLLR GIRLY POLND LEV Y290 DOWRY FROGZ5
Aircraft A320/M-SDE3FGHIRWY/LB1

Departure

Time 2026-05-07 21:54
Airport San Antonio International Airport (KSAT)

Arrival

Time 2026-05-08 00:09
Airport Miami International Airport (KMIA)
Time Latitude Longitude Altitude Speed Heading
2026-05-07 20:53 29.52794 -98.47221 798 ft 0 kts 312°
2026-05-07 21:45 29.52793 -98.47220 789 ft 2 kts 312°
2026-05-07 21:46 29.52779 -98.47203 798 ft 4 kts 310°
2026-05-07 21:46 29.52763 -98.47178 798 ft 4 kts 306°
2026-05-07 21:46 29.52752 -98.47160 798 ft 3 kts 29°
2026-05-07 21:46 29.52750 -98.47161 798 ft 0 kts 41°
2026-05-07 21:50 29.52788 -98.47123 798 ft 15 kts 41°
2026-05-07 21:51 29.52859 -98.47031 798 ft 19 kts 64°
2026-05-07 21:51 29.52843 -98.46902 798 ft 18 kts 130°
2026-05-07 21:51 29.52757 -98.46789 798 ft 16 kts 140°
2026-05-07 21:51 29.52647 -98.46840 798 ft 21 kts 220°
2026-05-07 21:52 29.52524 -98.46961 798 ft 26 kts 220°
2026-05-07 21:52 29.52434 -98.47051 798 ft 13 kts 221°
2026-05-07 21:52 29.52373 -98.47038 798 ft 11 kts 132°
2026-05-07 21:52 29.52343 -98.46966 798 ft 10 kts 59°
2026-05-07 21:53 29.52349 -98.46962 798 ft 0 kts 37°
2026-05-07 21:53 29.52350 -98.46961 798 ft 3 kts 37°
2026-05-07 21:54 29.52539 -98.46778 798 ft 72 kts 41°
2026-05-07 21:54 29.53079 -98.46243 798 ft 131 kts 40°
2026-05-07 21:54 29.53856 -98.45462 1103 ft 150 kts 42°
2026-05-07 21:54 29.54607 -98.44670 1832 ft 147 kts 42°
2026-05-07 21:55 29.55363 -98.43838 2433 ft 152 kts 43°
2026-05-07 21:55 29.56179 -98.42988 2762 ft 171 kts 42°
2026-05-07 21:55 29.56994 -98.41886 2997 ft 193 kts 67°
2026-05-07 21:55 29.57522 -98.40370 3318 ft 216 kts 70°
2026-05-07 21:56 29.58101 -98.38675 3673 ft 240 kts 70°
2026-05-07 21:56 29.58739 -98.36812 4164 ft 257 kts 70°
2026-05-07 21:56 29.59409 -98.34864 4879 ft 267 kts 70°
2026-05-07 21:56 29.60100 -98.32853 5597 ft 274 kts 70°
2026-05-07 21:57 29.60809 -98.30794 6341 ft 280 kts 70°
2026-05-07 21:57 29.61522 -98.28723 6997 ft 286 kts 70°
2026-05-07 21:57 29.62262 -98.26573 7650 ft 292 kts 70°
2026-05-07 21:57 29.62930 -98.24343 8290 ft 298 kts 79°
2026-05-07 21:58 29.63194 -98.21974 8962 ft 302 kts 85°
2026-05-07 21:58 29.63412 -98.19556 9647 ft 306 kts 85°
2026-05-07 21:58 29.63638 -98.17099 10256 ft 314 kts 85°
2026-05-07 21:58 29.63877 -98.14510 10419 ft 337 kts 85°
2026-05-07 21:59 29.64133 -98.11753 10683 ft 354 kts 85°
2026-05-07 21:59 29.64398 -98.08912 11227 ft 361 kts 85°
2026-05-07 21:59 29.64661 -98.06064 11815 ft 366 kts 85°
2026-05-07 21:59 29.64932 -98.03139 12419 ft 370 kts 85°
2026-05-07 22:00 29.65090 -98.00171 12996 ft 375 kts 90°
2026-05-07 22:00 29.65137 -97.97158 13604 ft 379 kts 90°
2026-05-07 22:00 29.65182 -97.94108 14115 ft 384 kts 90°
2026-05-07 22:00 29.65225 -97.91019 14610 ft 389 kts 91°
2026-05-07 22:01 29.65266 -97.87891 15111 ft 394 kts 91°
2026-05-07 22:01 29.65307 -97.84722 15590 ft 399 kts 91°
2026-05-07 22:01 29.65349 -97.81554 16058 ft 404 kts 91°
2026-05-07 22:01 29.65391 -97.78306 16545 ft 409 kts 91°
2026-05-07 22:02 29.65432 -97.75014 17007 ft 414 kts 92°
2026-05-07 22:02 29.65471 -97.71684 17482 ft 419 kts 92°
2026-05-07 22:02 29.65510 -97.68317 17956 ft 424 kts 92°
2026-05-07 22:02 29.65546 -97.64903 18407 ft 430 kts 92°
2026-05-07 22:03 29.65576 -97.61454 18826 ft 434 kts 92°
2026-05-07 22:03 29.65605 -97.57971 19289 ft 437 kts 92°
2026-05-07 22:03 29.65635 -97.54527 19765 ft 440 kts 92°
2026-05-07 22:03 29.65667 -97.51012 20249 ft 442 kts 92°
2026-05-07 22:04 29.65700 -97.47468 20731 ft 445 kts 92°
2026-05-07 22:04 29.65735 -97.43901 21205 ft 448 kts 92°
2026-05-07 22:04 29.65767 -97.40309 21663 ft 451 kts 92°
2026-05-07 22:04 29.65795 -97.36692 22111 ft 454 kts 92°
2026-05-07 22:05 29.65823 -97.33050 22564 ft 457 kts 92°
2026-05-07 22:05 29.65850 -97.29387 23005 ft 460 kts 92°
2026-05-07 22:05 29.65878 -97.25692 23442 ft 463 kts 92°
2026-05-07 22:05 29.65906 -97.22025 23814 ft 466 kts 92°
2026-05-07 22:06 29.65934 -97.18288 24153 ft 469 kts 92°
2026-05-07 22:06 29.65960 -97.14522 24487 ft 473 kts 92°
2026-05-07 22:06 29.65987 -97.10733 24817 ft 476 kts 92°
2026-05-07 22:06 29.66011 -97.06919 25137 ft 478 kts 92°
2026-05-07 22:07 29.66031 -97.03084 25451 ft 481 kts 92°
2026-05-07 22:07 29.66050 -96.99225 25772 ft 484 kts 92°
2026-05-07 22:07 29.66066 -96.95344 26076 ft 487 kts 93°
2026-05-07 22:07 29.66083 -96.91443 26373 ft 490 kts 93°
2026-05-07 22:08 29.66105 -96.87515 26673 ft 492 kts 92°
2026-05-07 22:08 29.66129 -96.83564 26966 ft 495 kts 93°
2026-05-07 22:08 29.66146 -96.79651 27262 ft 498 kts 93°
2026-05-07 22:08 29.66159 -96.75668 27554 ft 500 kts 93°
2026-05-07 22:09 29.66170 -96.71657 27850 ft 503 kts 93°
2026-05-07 22:09 29.66183 -96.67627 28147 ft 505 kts 93°
2026-05-07 22:09 29.66196 -96.63577 28436 ft 508 kts 93°
2026-05-07 22:09 29.66206 -96.59513 28723 ft 510 kts 93°
2026-05-07 22:10 29.66214 -96.55429 29012 ft 512 kts 93°
2026-05-07 22:10 29.66223 -96.51326 29290 ft 514 kts 93°
2026-05-07 22:10 29.66231 -96.47262 29560 ft 517 kts 93°
2026-05-07 22:10 29.66231 -96.43121 29827 ft 519 kts 94°
2026-05-07 22:11 29.66226 -96.38962 30078 ft 521 kts 94°
2026-05-07 22:11 29.66215 -96.34790 30293 ft 523 kts 94°
2026-05-07 22:11 29.66204 -96.30605 30502 ft 525 kts 94°
2026-05-07 22:11 29.66193 -96.26405 30707 ft 526 kts 94°
2026-05-07 22:12 29.66181 -96.22191 30908 ft 528 kts 94°
2026-05-07 22:12 29.66169 -96.17976 31187 ft 527 kts 94°
2026-05-07 22:12 29.66157 -96.13769 31466 ft 526 kts 94°
2026-05-07 22:12 29.66145 -96.09557 31735 ft 526 kts 94°
2026-05-07 22:13 29.66132 -96.05351 32018 ft 526 kts 94°
2026-05-07 22:13 29.66116 -96.01208 32297 ft 526 kts 94°
2026-05-07 22:13 29.66098 -95.97004 32576 ft 526 kts 94°
2026-05-07 22:13 29.66079 -95.92797 32847 ft 526 kts 94°
2026-05-07 22:14 29.66058 -95.88602 33124 ft 525 kts 94°
2026-05-07 22:14 29.66038 -95.84403 33406 ft 525 kts 94°
2026-05-07 22:14 29.66014 -95.80208 33665 ft 525 kts 94°
2026-05-07 22:14 29.65983 -95.76013 33938 ft 525 kts 94°
2026-05-07 22:15 29.65948 -95.71820 34179 ft 524 kts 94°
2026-05-07 22:15 29.65909 -95.67682 34390 ft 525 kts 94°
2026-05-07 22:15 29.65869 -95.63490 34595 ft 525 kts 94°
2026-05-07 22:15 29.65827 -95.59292 34788 ft 525 kts 94°
2026-05-07 22:16 29.65786 -95.55099 34973 ft 526 kts 94°
2026-05-07 22:16 29.65747 -95.50892 35159 ft 526 kts 94°
2026-05-07 22:16 29.65715 -95.46688 35351 ft 527 kts 94°
2026-05-07 22:16 29.65685 -95.42475 35621 ft 527 kts 94°
2026-05-07 22:17 29.65656 -95.38266 35847 ft 527 kts 94°
2026-05-07 22:17 29.65623 -95.34055 36011 ft 527 kts 94°
2026-05-07 22:17 29.65588 -95.29840 36184 ft 527 kts 94°
2026-05-07 22:17 29.65511 -95.25628 36339 ft 527 kts 96°
2026-05-07 22:18 29.65323 -95.21479 36489 ft 526 kts 98°
2026-05-07 22:18 29.64675 -95.13121 36774 ft 525 kts 100°
2026-05-07 22:18 29.64303 -95.08947 36941 ft 525 kts 100°
2026-05-07 22:19 29.63947 -95.04774 36994 ft 525 kts 99°
2026-05-07 22:19 29.63312 -94.96411 37002 ft 525 kts 98°
2026-05-07 22:20 29.62751 -94.88104 37006 ft 525 kts 98°
2026-05-07 22:20 29.62172 -94.79749 37024 ft 524 kts 98°
2026-05-07 22:21 29.61556 -94.71406 37019 ft 524 kts 99°
2026-05-07 22:21 29.60928 -94.63066 37017 ft 524 kts 99°
2026-05-07 22:22 29.60303 -94.54775 37021 ft 524 kts 99°
2026-05-07 22:22 29.59678 -94.46425 37022 ft 524 kts 99°
2026-05-07 22:23 29.59053 -94.38080 37028 ft 524 kts 99°
2026-05-07 22:23 29.58420 -94.29735 37026 ft 524 kts 99°
2026-05-07 22:24 29.57773 -94.21401 37027 ft 524 kts 99°
2026-05-07 22:24 29.57121 -94.13125 37025 ft 524 kts 99°
2026-05-07 22:25 29.56472 -94.04791 37023 ft 523 kts 99°
2026-05-07 22:25 29.55821 -93.96470 37021 ft 523 kts 99°
2026-05-07 22:26 29.55161 -93.88152 37023 ft 523 kts 99°
2026-05-07 22:26 29.54495 -93.79903 37028 ft 522 kts 99°
2026-05-07 22:27 29.53824 -93.71606 37036 ft 521 kts 99°
2026-05-07 22:27 29.53152 -93.63324 37039 ft 521 kts 99°
2026-05-07 22:28 29.52587 -93.56450 37037 ft 520 kts 99°
2026-05-07 22:28 29.51790 -93.46843 37036 ft 520 kts 99°
2026-05-07 22:29 29.51215 -93.39925 37031 ft 520 kts 99°
2026-05-07 22:29 29.50527 -93.31732 37033 ft 519 kts 99°
2026-05-07 22:30 29.49832 -93.23485 37027 ft 519 kts 99°
2026-05-07 22:30 29.49014 -93.13906 37025 ft 519 kts 99°
2026-05-07 22:31 29.48420 -93.07005 37024 ft 518 kts 99°
2026-05-07 22:31 29.47715 -92.98828 37023 ft 518 kts 99°
2026-05-07 22:32 29.47013 -92.90595 37023 ft 518 kts 99°
2026-05-07 22:32 29.46310 -92.82362 37021 ft 518 kts 99°
2026-05-07 22:33 29.45595 -92.74134 37020 ft 518 kts 99°
2026-05-07 22:33 29.44869 -92.65909 37018 ft 518 kts 99°
2026-05-07 22:34 29.44150 -92.57742 37017 ft 518 kts 99°
2026-05-07 22:34 29.43423 -92.49531 37013 ft 517 kts 99°
2026-05-07 22:35 29.42690 -92.41321 37009 ft 517 kts 99°
2026-05-07 22:35 29.41950 -92.33121 37010 ft 517 kts 99°
2026-05-07 22:36 29.41207 -92.24972 37011 ft 517 kts 99°
2026-05-07 22:36 29.40464 -92.16772 37010 ft 517 kts 99°
2026-05-07 22:37 29.39710 -92.08577 37010 ft 517 kts 99°
2026-05-07 22:37 29.38951 -92.00378 37011 ft 517 kts 99°
2026-05-07 22:38 29.38187 -91.92191 37008 ft 517 kts 99°
2026-05-07 22:38 29.37424 -91.84059 37011 ft 516 kts 99°
2026-05-07 22:39 29.36657 -91.75876 37012 ft 516 kts 99°
2026-05-07 22:39 29.35881 -91.67704 37013 ft 515 kts 99°
2026-05-07 22:40 29.35093 -91.59546 37017 ft 514 kts 99°
2026-05-07 22:40 29.34309 -91.51457 37017 ft 514 kts 99°
2026-05-07 22:41 29.33525 -91.43323 37013 ft 513 kts 99°
2026-05-07 22:41 29.32738 -91.35197 37015 ft 513 kts 99°
2026-05-07 22:42 29.31946 -91.27084 37020 ft 512 kts 99°
2026-05-07 22:42 29.31110 -91.18984 37018 ft 512 kts 100°
2026-05-07 22:43 29.30130 -91.10972 37014 ft 511 kts 101°
2026-05-07 22:43 29.29098 -91.02926 37012 ft 510 kts 101°
2026-05-07 22:44 29.28100 -90.94880 37013 ft 510 kts 101°
2026-05-07 22:44 29.27126 -90.86837 37014 ft 510 kts 100°
2026-05-07 22:45 29.26155 -90.78849 37012 ft 510 kts 101°
2026-05-07 22:45 29.25160 -90.70815 37016 ft 509 kts 101°
2026-05-07 22:46 29.24162 -90.62793 37010 ft 509 kts 101°
2026-05-07 22:46 29.23156 -90.54781 37010 ft 508 kts 101°
2026-05-07 22:47 29.22158 -90.46828 37009 ft 508 kts 101°
2026-05-07 22:47 29.21151 -90.38826 37010 ft 508 kts 101°
2026-05-07 22:48 29.20131 -90.30824 37011 ft 508 kts 101°
2026-05-07 22:48 29.19111 -90.22827 37011 ft 508 kts 101°
2026-05-07 22:49 29.18095 -90.14887 37010 ft 508 kts 101°
2026-05-07 22:49 29.16320 -90.07146 37002 ft 500 kts 117°
2026-05-07 22:50 29.13582 -89.99851 36995 ft 499 kts 117°
2026-05-07 22:50 29.10845 -89.92552 36994 ft 499 kts 117°
2026-05-07 22:51 29.08131 -89.85298 36999 ft 499 kts 117°
2026-05-07 22:51 29.05394 -89.78011 36998 ft 499 kts 117°
2026-05-07 22:52 29.02654 -89.70721 37002 ft 499 kts 117°
2026-05-07 22:52 28.99912 -89.63427 37004 ft 499 kts 117°
2026-05-07 22:53 28.97185 -89.56198 37003 ft 499 kts 117°
2026-05-07 22:53 28.94433 -89.48928 37004 ft 499 kts 117°
2026-05-07 22:54 28.91675 -89.41665 37006 ft 499 kts 117°
2026-05-07 22:54 28.88914 -89.34403 37003 ft 499 kts 117°
2026-05-07 22:55 28.86149 -89.27149 37005 ft 499 kts 117°
2026-05-07 22:55 28.83400 -89.19940 37005 ft 498 kts 117°
2026-05-07 22:56 28.80636 -89.12696 37002 ft 498 kts 117°
2026-05-07 22:56 28.77865 -89.05461 37001 ft 498 kts 117°
2026-05-07 22:57 28.75089 -88.98236 36998 ft 498 kts 117°
2026-05-07 22:57 28.72330 -88.91065 36999 ft 498 kts 117°
2026-05-07 22:58 28.69559 -88.83843 36997 ft 497 kts 117°
2026-05-07 22:58 28.66779 -88.76625 36997 ft 498 kts 117°
2026-05-07 22:59 28.63988 -88.69419 36996 ft 498 kts 117°
2026-05-07 22:59 28.61191 -88.62212 37001 ft 498 kts 117°
2026-05-07 23:00 28.58415 -88.55050 37004 ft 498 kts 117°
2026-05-07 23:00 28.55619 -88.47843 37005 ft 498 kts 117°
2026-05-07 23:01 28.52822 -88.40638 37003 ft 498 kts 117°
2026-05-07 23:01 28.50008 -88.33440 37007 ft 498 kts 117°
2026-05-07 23:02 28.47192 -88.26246 37004 ft 498 kts 117°
2026-05-07 23:02 28.44396 -88.19099 37007 ft 498 kts 117°
2026-05-07 23:03 28.41576 -88.11908 37018 ft 498 kts 117°
2026-05-07 23:03 28.38752 -88.04727 37003 ft 498 kts 116°
2026-05-07 23:04 28.36476 -87.97325 37014 ft 500 kts 110°
2026-05-07 23:04 28.34313 -87.89824 37008 ft 500 kts 110°
2026-05-07 23:05 28.32149 -87.82318 37020 ft 500 kts 110°
2026-05-07 23:05 28.29981 -87.74818 37013 ft 500 kts 110°
2026-05-07 23:06 28.27801 -87.67317 37019 ft 500 kts 110°
2026-05-07 23:06 28.25635 -87.59881 37022 ft 500 kts 110°
2026-05-07 23:07 28.23453 -87.52396 37025 ft 500 kts 110°
2026-05-07 23:07 28.21274 -87.44918 37020 ft 500 kts 110°
2026-05-07 23:08 28.19077 -87.37445 37018 ft 499 kts 110°
2026-05-07 23:08 28.16898 -87.30025 37023 ft 499 kts 110°
2026-05-07 23:09 28.14705 -87.22559 37020 ft 499 kts 110°
2026-05-07 23:09 28.12511 -87.15100 37025 ft 499 kts 110°
2026-05-07 23:10 28.10301 -87.07645 37023 ft 499 kts 111°
2026-05-07 23:10 28.08094 -87.00202 37024 ft 499 kts 110°
2026-05-07 23:11 28.05897 -86.92812 37025 ft 498 kts 111°
2026-05-07 23:11 28.03682 -86.85376 37031 ft 498 kts 110°
2026-05-07 23:12 28.01472 -86.77946 37028 ft 498 kts 110°
2026-05-07 23:12 27.99281 -86.70513 37030 ft 498 kts 110°
2026-05-07 23:13 27.97158 -86.63115 37035 ft 498 kts 110°
2026-05-07 23:13 27.95025 -86.55666 37030 ft 498 kts 110°
2026-05-07 23:14 27.92864 -86.48240 37034 ft 497 kts 110°
2026-05-07 23:14 27.90693 -86.40815 37035 ft 497 kts 110°
2026-05-07 23:15 27.88541 -86.33447 37033 ft 497 kts 110°
2026-05-07 23:15 27.86376 -86.26036 37031 ft 497 kts 110°
2026-05-07 23:16 27.84206 -86.18628 37037 ft 496 kts 110°
2026-05-07 23:16 27.82031 -86.11228 37032 ft 496 kts 110°
2026-05-07 23:17 27.79851 -86.03839 37034 ft 496 kts 110°
2026-05-07 23:17 27.77670 -85.96455 37034 ft 496 kts 110°
2026-05-07 23:18 27.75501 -85.89122 37030 ft 496 kts 110°
2026-05-07 23:18 27.73325 -85.81738 37030 ft 495 kts 110°
2026-05-07 23:19 27.71135 -85.74366 37030 ft 495 kts 110°
2026-05-07 23:19 27.68934 -85.67000 37034 ft 495 kts 110°
2026-05-07 23:20 27.66753 -85.59689 37035 ft 495 kts 110°
2026-05-07 23:20 27.64554 -85.52328 37036 ft 495 kts 110°
2026-05-07 23:21 27.62353 -85.44980 37036 ft 495 kts 110°
2026-05-07 23:21 27.60142 -85.37627 37035 ft 495 kts 110°
2026-05-07 23:22 27.58434 -85.30176 37033 ft 496 kts 102°
2026-05-07 23:22 27.57113 -85.22550 37037 ft 496 kts 102°
2026-05-07 23:23 27.55799 -85.14922 37040 ft 496 kts 101°
2026-05-07 23:23 27.54512 -85.07279 37023 ft 497 kts 101°
2026-05-07 23:24 27.53238 -84.99677 37020 ft 497 kts 101°
2026-05-07 23:24 27.51957 -84.92015 37023 ft 498 kts 101°
2026-05-07 23:25 27.50678 -84.84346 37025 ft 498 kts 101°
2026-05-07 23:25 27.49402 -84.76681 37030 ft 498 kts 101°
2026-05-07 23:26 27.48134 -84.69061 37038 ft 498 kts 101°
2026-05-07 23:26 27.46860 -84.61391 37036 ft 498 kts 101°
2026-05-07 23:27 27.44951 -84.49897 37040 ft 498 kts 101°
2026-05-07 23:27 27.43689 -84.42283 37042 ft 498 kts 101°
2026-05-07 23:28 27.42423 -84.34621 37042 ft 498 kts 101°
2026-05-07 23:28 27.41157 -84.26961 37045 ft 498 kts 101°
2026-05-07 23:29 27.39897 -84.19307 37044 ft 498 kts 101°
2026-05-07 23:29 27.38647 -84.11699 37049 ft 498 kts 101°
2026-05-07 23:30 27.37390 -84.04047 37046 ft 498 kts 101°
2026-05-07 23:30 27.36136 -83.96391 37047 ft 497 kts 101°
2026-05-07 23:31 27.34886 -83.88741 37046 ft 497 kts 101°
2026-05-07 23:31 27.33648 -83.81144 37045 ft 497 kts 101°
2026-05-07 23:32 27.32405 -83.73495 37048 ft 497 kts 101°
2026-05-07 23:32 27.31163 -83.65849 37049 ft 497 kts 101°
2026-05-07 23:33 27.29925 -83.58198 37050 ft 497 kts 100°
2026-05-07 23:33 27.28701 -83.50611 37049 ft 497 kts 100°
2026-05-07 23:34 27.27471 -83.42966 37048 ft 497 kts 100°
2026-05-07 23:34 27.26246 -83.35331 37050 ft 497 kts 100°
2026-05-07 23:35 27.25025 -83.27690 37050 ft 496 kts 100°
2026-05-07 23:35 27.23807 -83.20059 37055 ft 496 kts 100°
2026-05-07 23:36 27.22604 -83.12475 37049 ft 496 kts 100°
2026-05-07 23:36 27.21397 -83.04847 37053 ft 496 kts 100°
2026-05-07 23:37 27.20197 -82.97220 37053 ft 496 kts 100°
2026-05-07 23:37 27.19001 -82.89599 37055 ft 495 kts 100°
2026-05-07 23:38 27.17820 -82.82034 37058 ft 495 kts 100°
2026-05-07 23:38 27.16635 -82.74417 37057 ft 495 kts 100°
2026-05-07 23:39 27.15457 -82.66810 37061 ft 494 kts 100°
2026-05-07 23:39 27.14290 -82.59258 37060 ft 494 kts 100°
2026-05-07 23:40 27.13120 -82.51659 37063 ft 494 kts 100°
2026-05-07 23:40 27.11953 -82.44061 37063 ft 494 kts 100°
2026-05-07 23:41 27.10809 -82.36469 37081 ft 493 kts 99°
2026-05-07 23:41 27.09721 -82.28931 37071 ft 492 kts 99°
2026-05-07 23:42 27.08495 -82.21395 37064 ft 489 kts 110°
2026-05-07 23:42 27.07119 -82.17943 37061 ft 483 kts 125°
2026-05-07 23:42 27.05080 -82.14998 36853 ft 475 kts 140°
2026-05-07 23:43 27.02505 -82.12743 36608 ft 465 kts 155°
2026-05-07 23:43 26.99586 -82.11278 36370 ft 456 kts 169°
2026-05-07 23:43 26.96510 -82.10615 36119 ft 448 kts 181°
2026-05-07 23:43 26.93446 -82.10383 35882 ft 447 kts 181°
2026-05-07 23:44 26.90346 -82.10156 35644 ft 446 kts 181°
2026-05-07 23:44 26.87254 -82.09931 35403 ft 445 kts 181°
2026-05-07 23:44 26.84172 -82.09706 35166 ft 443 kts 181°
2026-05-07 23:44 26.81100 -82.09480 34930 ft 442 kts 181°
2026-05-07 23:45 26.78037 -82.09254 34702 ft 440 kts 181°
2026-05-07 23:45 26.74981 -82.09030 34464 ft 439 kts 181°
2026-05-07 23:45 26.71934 -82.08806 34230 ft 438 kts 182°
2026-05-07 23:45 26.68915 -82.08583 33830 ft 434 kts 181°
2026-05-07 23:46 26.65913 -82.08362 33335 ft 430 kts 182°
2026-05-07 23:46 26.62979 -82.08147 32861 ft 427 kts 182°
2026-05-07 23:46 26.60022 -82.07930 32381 ft 424 kts 182°
2026-05-07 23:46 26.57087 -82.07663 31921 ft 424 kts 176°
2026-05-07 23:47 26.54205 -82.06878 31445 ft 429 kts 165°
2026-05-07 23:47 26.51491 -82.05461 30956 ft 434 kts 152°
2026-05-07 23:47 26.49062 -82.03442 30455 ft 438 kts 141°
2026-05-07 23:47 26.46810 -82.01149 29929 ft 438 kts 141°
2026-05-07 23:48 26.44557 -81.98867 29407 ft 436 kts 141°
2026-05-07 23:48 26.42315 -81.96609 28926 ft 433 kts 141°
2026-05-07 23:48 26.40113 -81.94402 28456 ft 430 kts 141°
2026-05-07 23:48 26.37890 -81.92181 27989 ft 428 kts 141°
2026-05-07 23:49 26.35702 -81.89992 27852 ft 416 kts 141°
2026-05-07 23:49 26.33584 -81.87862 27755 ft 404 kts 141°
2026-05-07 23:49 26.31527 -81.85790 27660 ft 399 kts 141°
2026-05-07 23:49 26.29433 -81.83690 27044 ft 407 kts 141°
2026-05-07 23:50 26.27295 -81.81550 25983 ft 421 kts 141°
2026-05-07 23:50 26.25118 -81.79322 25283 ft 428 kts 136°
2026-05-07 23:50 26.23291 -81.76747 24810 ft 431 kts 124°
2026-05-07 23:50 26.21901 -81.73795 24345 ft 431 kts 117°
2026-05-07 23:51 26.20607 -81.70796 23908 ft 428 kts 117°
2026-05-07 23:51 26.19316 -81.67806 23392 ft 428 kts 117°
2026-05-07 23:51 26.18024 -81.64828 22814 ft 427 kts 117°
2026-05-07 23:51 26.16733 -81.61857 22256 ft 426 kts 117°
2026-05-07 23:52 26.15442 -81.58888 21707 ft 426 kts 117°
2026-05-07 23:52 26.14155 -81.55924 21166 ft 425 kts 117°
2026-05-07 23:52 26.12871 -81.52967 20639 ft 424 kts 117°
2026-05-07 23:52 26.11591 -81.50025 20114 ft 422 kts 116°
2026-05-07 23:53 26.10332 -81.47130 19607 ft 421 kts 116°
2026-05-07 23:53 26.09059 -81.44204 19102 ft 419 kts 116°
2026-05-07 23:53 26.07790 -81.41296 18606 ft 417 kts 116°
2026-05-07 23:53 26.06524 -81.38401 18088 ft 415 kts 116°
2026-05-07 23:54 26.05262 -81.35514 17522 ft 414 kts 116°
2026-05-07 23:54 26.04009 -81.32645 16974 ft 411 kts 116°
2026-05-07 23:54 26.02764 -81.29794 16433 ft 409 kts 116°
2026-05-07 23:54 26.01524 -81.26958 15894 ft 407 kts 116°
2026-05-07 23:55 26.00290 -81.24138 15381 ft 404 kts 116°
2026-05-07 23:55 25.99078 -81.21375 14871 ft 402 kts 116°
2026-05-07 23:55 25.97860 -81.18593 14367 ft 399 kts 116°
2026-05-07 23:55 25.96649 -81.15829 13862 ft 396 kts 116°
2026-05-07 23:56 25.95447 -81.13091 13317 ft 393 kts 117°
2026-05-07 23:56 25.94252 -81.10382 12765 ft 389 kts 116°
2026-05-07 23:56 25.93067 -81.07697 12223 ft 385 kts 116°
2026-05-07 23:56 25.91895 -81.05037 11699 ft 381 kts 116°
2026-05-07 23:57 25.90755 -81.02397 11177 ft 377 kts 115°
2026-05-07 23:57 25.89698 -80.99753 10663 ft 373 kts 114°
2026-05-07 23:57 25.88711 -80.97149 10164 ft 369 kts 113°
2026-05-07 23:57 25.87743 -80.94534 9650 ft 364 kts 112°
2026-05-07 23:58 25.86788 -80.91956 9087 ft 355 kts 112°
2026-05-07 23:58 25.85877 -80.89496 8636 ft 334 kts 110°
2026-05-07 23:58 25.85479 -80.87043 8202 ft 316 kts 88°
2026-05-07 23:58 25.85659 -80.84668 7773 ft 302 kts 83°
2026-05-07 23:59 25.85898 -80.82400 7351 ft 290 kts 83°
2026-05-07 23:59 25.86131 -80.80223 6929 ft 279 kts 83°
2026-05-07 23:59 25.86354 -80.78125 6516 ft 269 kts 83°
2026-05-07 23:59 25.86579 -80.76097 6095 ft 259 kts 78°
2026-05-08 00:00 25.87240 -80.74381 5977 ft 236 kts 56°
2026-05-08 00:00 25.88173 -80.72889 5992 ft 234 kts 53°
2026-05-08 00:00 25.89137 -80.71433 5998 ft 234 kts 53°
2026-05-08 00:00 25.90104 -80.69982 5993 ft 234 kts 53°
2026-05-08 00:01 25.91070 -80.68531 5996 ft 234 kts 53°
2026-05-08 00:01 25.91827 -80.66947 5991 ft 232 kts 75°
2026-05-08 00:01 25.92105 -80.65191 6001 ft 230 kts 82°
2026-05-08 00:01 25.92294 -80.63447 5984 ft 231 kts 83°
2026-05-08 00:02 25.92474 -80.61670 5733 ft 230 kts 83°
2026-05-08 00:02 25.92649 -80.59906 5483 ft 229 kts 83°
2026-05-08 00:02 25.92820 -80.58147 5246 ft 229 kts 83°
2026-05-08 00:02 25.92984 -80.56388 5015 ft 229 kts 85°
2026-05-08 00:03 25.92664 -80.54694 4761 ft 226 kts 123°
2026-05-08 00:03 25.91725 -80.53302 4477 ft 223 kts 123°
2026-05-08 00:03 25.91282 -80.52514 4328 ft 218 kts 120°
2026-05-08 00:03 25.90667 -80.51267 4094 ft 215 kts 119°
2026-05-08 00:04 25.89930 -80.49829 3825 ft 213 kts 120°
2026-05-08 00:04 25.89208 -80.48420 3558 ft 206 kts 120°
2026-05-08 00:04 25.88518 -80.47068 3303 ft 197 kts 120°
2026-05-08 00:04 25.87853 -80.45762 3051 ft 193 kts 121°
2026-05-08 00:05 25.87200 -80.44480 2818 ft 187 kts 121°
2026-05-08 00:05 25.86577 -80.43257 2585 ft 177 kts 121°
2026-05-08 00:05 25.85988 -80.42101 2342 ft 167 kts 121°
2026-05-08 00:05 25.85425 -80.40998 2139 ft 162 kts 122°
2026-05-08 00:06 25.84882 -80.39934 1945 ft 159 kts 122°
2026-05-08 00:06 25.84343 -80.38876 1743 ft 156 kts 123°
2026-05-08 00:06 25.83815 -80.37842 1541 ft 153 kts 122°
2026-05-08 00:06 25.83298 -80.36829 1336 ft 149 kts 123°
2026-05-08 00:07 25.82789 -80.35831 1153 ft 149 kts 124°
2026-05-08 00:07 25.82277 -80.34828 963 ft 149 kts 125°
2026-05-08 00:07 25.81770 -80.33835 783 ft 147 kts 124°
2026-05-08 00:07 25.81276 -80.32869 605 ft 144 kts 120°
2026-05-08 00:08 25.80787 -80.31911 404 ft 143 kts 121°
2026-05-08 00:08 25.80296 -80.30953 220 ft 143 kts 122°
2026-05-08 00:08 25.79810 -80.29997 31 ft 140 kts 121°
2026-05-08 00:08 25.79378 -80.29154 14 ft 101 kts 118°
2026-05-08 00:09 25.79116 -80.28636 15 ft 41 kts 119°
2026-05-08 00:09 25.79106 -80.28501 16 ft 10 kts 68°
2026-05-08 00:09 25.79110 -80.28490 16 ft 0 kts 65°
2026-05-08 00:10 25.79111 -80.28488 16 ft 3 kts 65°
2026-05-08 00:10 25.79133 -80.28437 19 ft 14 kts 61°
2026-05-08 00:10 25.79221 -80.28425 18 ft 19 kts 318°
2026-05-08 00:10 25.79282 -80.28529 18 ft 13 kts 300°
2026-05-08 00:11 25.79326 -80.28613 16 ft 11 kts 300°
2026-05-08 00:11 25.79366 -80.28691 15 ft 12 kts 300°
2026-05-08 00:11 25.79416 -80.28780 15 ft 14 kts 311°
2026-05-08 00:11 25.79510 -80.28809 18 ft 15 kts
2026-05-08 00:12 25.79614 -80.28809 21 ft 16 kts 359°
2026-05-08 00:12 25.79728 -80.28814 20 ft 15 kts 356°
2026-05-08 00:12 25.79837 -80.28822 21 ft 17 kts 356°
2026-05-08 00:12 25.79936 -80.28777 24 ft 17 kts 72°
2026-05-08 00:13 25.79938 -80.28647 20 ft 15 kts 87°
2026-05-08 00:13 25.79943 -80.28548 18 ft 15 kts 87°
2026-05-08 00:13 25.79948 -80.28437 16 ft 11 kts 87°
2026-05-08 00:13 25.79952 -80.28340 15 ft 14 kts 88°
2026-05-08 00:14 25.79956 -80.28224 15 ft 17 kts 87°
2026-05-08 00:14 25.79963 -80.28074 12 ft 16 kts 86°
2026-05-08 00:14 25.79968 -80.27946 12 ft 19 kts 87°
2026-05-08 00:14 25.79974 -80.27836 14 ft 11 kts 86°
2026-05-08 00:15 25.79978 -80.27752 16 ft 10 kts 86°
2026-05-08 00:15 25.79983 -80.27664 17 ft 13 kts 87°
2026-05-08 00:15 25.79986 -80.27545 17 ft 17 kts 89°
2026-05-08 00:15 25.79991 -80.27407 19 ft 9 kts 86°
2026-05-08 00:16 25.79994 -80.27356 21 ft 8 kts 86°
2026-05-08 00:16 25.79995 -80.27297 22 ft 6 kts 101°
2026-05-08 00:16 25.79945 -80.27263 22 ft 13 kts 179°
2026-05-08 00:16 25.79899 -80.27264 21 ft 0 kts 176°